Wind_Speed
34 35 38 39 38 35 38 35 39 40 43 44 45 43 42 40 40 38 38 38 37 38 36 34 35 33 33 34 36 37 37 33 33 33 33 32 32 32 33 32 33 34 33
34 36 43 43 39 35 36 34 38 39 41 43 44 49 45 42 40 39 41 40 36 36 33 33 34 34 35 36 34 33 29 29 31 32 31 28 28 28 28 27 28 30 31
35 42 43 43 39 37 37 38 38 39 45 47 48 50 47 42 41 39 38 38 36 34 33 33 34 34 32 29 27 27 27 30 30 31 29 27 25 25 25 27 28 28 28
38 45 41 39 38 36 36 40 42 41 44 47 50 51 46 41 38 38 37 33 34 35 34 33 32 32 32 28 27 24 24 28 30 32 31 30 25 24 26 27 26 26 28
45 48 46 45 39 40 40 42 44 45 45 47 46 48 44 39 36 37 38 41 40 36 32 32 32 32 30 27 26 26 25 25 29 30 29 27 26 22 23 25 25 24 25
48 49 48 47 44 42 41 43 44 47 47 47 44 45 42 39 36 35 37 36 35 31 31 31 32 34 32 30 26 24 25 26 24 22 23 25 27 27 27 25 26 25 23
51 49 49 47 46 45 45 45 45 48 47 49 47 44 43 40 36 36 35 35 35 31 30 31 33 33 34 32 25 25 27 27 20 20 21 25 26 30 32 30 27 25 25
53 51 51 48 47 47 51 50 49 47 49 50 49 45 43 40 37 35 33 34 33 30 31 32 34 33 32 24 25 26 22 24 22 25 21 25 24 24 27 30 29 28 25
50 54 53 51 51 50 55 54 50 46 48 51 50 46 43 40 36 34 31 30 27 30 33 35 32 33 30 25 25 25 23 23 21 23 27 25 24 26 25 25 27 29 28
55 55 58 58 58 57 58 57 51 48 45 51 53 47 42 40 35 32 29 25 27 29 28 27 31 31 29 28 27 26 23 24 24 24 25 25 26 28 27 26 27 28 29
59 60 62 61 59 56 60 58 55 48 46 50 51 46 42 39 34 32 29 27 30 24 23 30 38 35 30 30 29 27 28 27 29 28 26 30 29 34 30 30 28 30 31
63 64 65 61 59 62 62 59 56 51 46 50 52 48 41 39 34 33 29 28 28 28 27 32 34 32 33 32 33 31 29 31 32 32 33 34 34 33 35 34 31 32 28
68 66 66 63 65 63 57 57 54 49 47 51 51 48 43 39 34 33 30 28 28 28 29 26 33 36 37 36 39 36 33 36 35 35 36 38 39 41 40 43 40 41 34
71 68 63 65 63 66 60 56 56 49 47 49 48 47 42 41 37 32 31 30 30 34 35 34 30 36 40 43 41 41 41 40 41 40 42 46 46 45 47 48 50 48 49
69 67 66 67 68 62 57 54 53 47 45 45 47 48 42 39 36 34 31 32 31 30 31 33 36 36 38 42 44 45 45 45 47 49 49 52 51 49 49 52 52 53 52
69 71 71 72 67 58 53 52 50 47 46 44 44 44 47 42 37 34 32 30 33 33 34 35 36 37 38 41 42 42 44 48 51 52 51 51 51 52 54 55 54 56 57
79 73 74 72 63 58 50 49 48 46 48 45 45 40 44 46 42 36 35 34 34 35 36 36 38 39 42 42 42 43 46 50 53 53 53 54 56 59 61 62 64 61 62
78 75 70 70 62 55 49 46 47 48 49 47 47 43 40 43 45 43 42 37 38 40 40 41 42 43 43 44 47 48 49 51 54 58 60 62 62 63 63 65 64 63 64
75 70 67 63 60 56 49 47 48 49 49 50 48 46 44 44 45 44 45 43 42 42 44 45 45 46 49 51 53 57 57 59 59 59 64 63 66 65 64 68 72 75 76
70 69 66 61 57 54 52 54 51 50 51 51 49 47 44 47 47 47 49 49 49 49 52 51 49 52 54 55 59 61 62 65 67 67 70 67 69 71 75 76 77 79 80
70 64 61 59 59 55 57 57 56 54 53 54 50 49 49 46 44 48 49 51 55 53 54 55 55 56 57 60 62 63 65 68 68 66 69 70 75 80 82 84 82 81 83
71 65 65 62 58 58 61 62 59 58 55 55 50 53 52 52 52 51 54 53 54 57 57 58 60 62 63 63 66 69 70 68 73 73 75 80 83 86 85 86 87 89 88
74 69 69 68 69 67 65 63 64 63 59 57 55 56 57 53 52 52 54 53 55 56 57 57 59 63 67 69 71 74 76 75 78 81 82 83 85 87 88 89 89 92 94
77 73 70 71 70 72 65 64 65 63 64 63 60 59 58 59 59 58 58 59 60 61 63 66 67 67 69 73 75 76 78 81 83 82 83 85 90 89 91 98 100 100 99
74 75 69 69 71 71 67 67 70 73 67 64 63 60 62 63 63 65 68 70 70 69 71 72 70 71 73 73 74 78 81 85 88 87 88 88 89 91 94 98 99 98 100
73 77 70 70 71 71 72 73 72 74 66 64 63 63 61 63 67 71 72 71 72 73 74 74 75 77 79 78 79 79 80 83 87 89 92 93 96 98 98 101 101 107 110
Wind_Direction
328 329 330 326 319 311 310 311 307 308 305 306 307 309 308 298 292 290 291 292 287 284 287 288 287 286 287 290 294 294 295 294 296 296 296 294 292 288 283 279 275 273 273
329 327 325 329 324 320 318 313 305 301 304 306 308 308 308 304 296 293 285 287 285 282 284 290 287 284 284 290 293 293 297 294 297 300 302 301 294 291 284 282 280 276 277
325 326 329 332 326 323 316 313 310 302 299 303 305 306 304 305 298 293 287 282 281 281 281 283 281 281 285 287 289 294 298 301 300 302 307 308 305 299 292 289 283 280 276
324 328 331 331 325 320 321 312 308 305 302 301 301 304 302 303 299 293 289 284 280 279 279 278 277 277 282 277 289 295 305 309 307 306 307 300 304 300 299 294 295 290 284
321 330 331 330 324 319 320 318 311 309 304 301 300 304 303 301 298 294 289 286 285 281 277 274 275 275 279 280 286 287 300 313 316 313 309 302 297 296 301 297 296 296 288
324 327 326 328 325 319 319 317 315 310 307 305 300 302 300 302 297 292 288 287 287 280 272 273 272 272 276 274 280 281 294 310 317 321 317 316 307 299 297 300 301 298 296
319 320 324 322 324 321 320 318 313 314 308 306 305 303 301 301 297 293 289 286 280 277 272 270 268 271 274 270 274 282 288 304 302 298 316 326 313 303 297 294 292 292 291
313 314 321 319 321 321 322 317 317 313 308 307 307 304 301 301 296 293 290 286 278 268 271 269 268 272 271 269 276 286 290 299 303 293 303 315 316 316 313 299 290 288 284
314 318 316 316 318 320 321 317 317 314 310 308 309 307 302 301 297 293 292 284 273 261 272 269 268 264 268 270 276 287 287 294 297 289 299 310 319 322 319 314 302 286 283
313 318 317 317 317 318 319 317 317 312 310 308 308 309 302 302 298 292 290 273 275 273 273 269 269 269 264 267 275 284 282 291 293 292 300 302 309 318 318 309 312 306 294
313 314 314 314 315 316 316 317 314 312 310 309 307 310 301 299 299 290 286 275 266 274 275 274 270 262 262 268 280 283 287 287 298 298 308 298 301 306 311 312 306 308 304
309 311 311 312 312 314 315 314 314 314 310 308 308 309 304 297 295 289 282 273 264 264 281 276 274 270 264 267 278 283 290 289 295 298 296 289 295 300 300 302 297 301 292
306 309 310 309 310 313 314 315 314 316 311 309 308 310 306 297 294 291 280 270 262 263 265 274 273 268 269 266 277 285 286 295 292 292 292 288 290 296 296 300 296 295 291
303 305 306 308 310 313 311 313 312 315 311 311 309 308 306 300 296 289 278 272 264 262 263 269 274 286 274 272 277 276 277 287 289 290 289 290 294 293 296 294 296 299 298
302 300 303 307 305 309 306 311 310 311 308 305 304 304 303 299 291 286 282 271 272 268 266 271 271 278 283 284 279 278 280 285 286 288 289 290 292 292 289 290 292 297 298
301 300 303 303 306 304 305 306 306 304 304 300 298 299 301 299 294 283 281 280 275 271 273 273 273 274 275 277 279 279 280 283 285 281 280 285 286 288 288 286 288 291 292
300 301 301 301 303 304 300 300 299 298 300 298 296 291 295 295 293 286 283 281 285 283 279 279 277 273 274 275 279 279 278 279 283 284 283 285 286 288 287 288 290 291 290
296 298 297 301 301 302 295 295 292 292 297 296 291 297 290 288 289 292 289 286 286 286 285 284 283 282 283 282 283 282 281 280 281 284 284 284 285 287 288 286 286 284 283
298 297 298 296 299 296 291 288 287 288 295 294 289 298 287 280 279 278 281 283 284 283 283 281 282 281 280 280 279 279 281 284 285 281 280 282 285 284 280 281 283 283 286
296 297 295 295 292 292 287 284 282 282 288 292 290 287 287 278 275 274 274 272 275 279 280 280 279 277 278 276 276 278 278 278 281 282 283 284 282 280 280 281 284 286 286
294 293 290 292 291 288 283 281 280 280 287 290 289 284 279 276 277 276 276 277 276 276 276 277 277 277 276 276 277 279 282 282 282 282 281 279 278 280 282 283 285 285 284
294 291 290 289 288 286 282 280 278 278 283 285 285 283 284 284 282 281 281 283 279 279 279 277 275 276 278 280 281 280 278 278 276 276 278 279 280 280 283 286 285 283 284
293 292 288 286 287 284 280 279 279 280 282 283 284 282 285 284 281 278 277 278 278 278 278 278 280 281 281 282 282 281 278 277 278 280 281 281 283 285 286 286 284 286 286
290 291 286 283 282 279 278 280 280 280 281 285 283 284 281 282 281 278 274 276 278 280 281 281 282 284 285 284 282 281 280 281 280 279 279 283 285 287 288 287 287 285 283
285 286 284 285 282 279 279 279 280 281 281 284 282 283 282 279 282 283 282 281 281 283 285 285 286 286 285 283 282 283 282 282 282 282 283 283 282 283 283 285 285 286 285
278 284 281 282 279 277 280 280 279 279 279 279 282 282 280 280 278 280 283 284 284 283 284 287 286 287 288 287 285 284 284 285 288 287 286 287 286 285 285 285 285 285 284
Height
10881 10878 10876 10872 10868 10865 10862 10858 10854 10851 10846 10843 10840 10837 10837 10835 10834 10831 10829 10827 10825 10824 10824 10824 10823 10822 10821 10820 10819 10817 10815 10814 10812 10810 10808 10806 10803 10801 10799 10798 10797 10797 10797
10880 10877 10873 10869 10864 10860 10858 10855 10851 10847 10842 10838 10835 10830 10829 10828 10826 10824 10822 10821 10819 10818 10818 10818 10818 10817 10817 10816 10814 10812 10810 10808 10807 10805 10802 10799 10797 10795 10794 10793 10791 10791 10791
10877 10874 10869 10865 10861 10856 10853 10849 10846 10843 10838 10834 10830 10825 10822 10820 10819 10817 10814 10813 10812 10812 10812 10812 10812 10812 10811 10811 10809 10807 10804 10803 10802 10800 10799 10794 10792 10790 10789 10788 10787 10786 10786
10873 10870 10866 10862 10858 10854 10850 10845 10841 10837 10832 10828 10824 10819 10816 10814 10812 10810 10808 10806 10805 10805 10805 10805 10806 10806 10806 10805 10803 10802 10800 10799 10797 10795 10795 10791 10787 10786 10785 10784 10783 10782 10781
10868 10864 10860 10857 10853 10850 10846 10842 10837 10832 10828 10823 10817 10813 10809 10807 10805 10804 10802 10799 10799 10798 10798 10798 10799 10800 10800 10800 10799 10797 10795 10794 10792 10790 10786 10784 10782 10781 10780 10779 10778 10778 10778
10862 10858 10855 10852 10848 10845 10841 10836 10832 10827 10822 10817 10812 10807 10803 10800 10798 10797 10795 10794 10792 10791 10792 10791 10793 10793 10794 10794 10794 10792 10791 10788 10785 10785 10783 10780 10778 10777 10777 10776 10774 10773 10773
10857 10854 10851 10847 10843 10840 10836 10831 10826 10822 10816 10810 10805 10800 10796 10794 10791 10790 10788 10787 10786 10785 10785 10785 10785 10786 10787 10787 10788 10788 10787 10784 10782 10779 10778 10776 10774 10773 10773 10772 10771 10770 10769
10851 10849 10846 10842 10839 10834 10830 10825 10820 10815 10809 10804 10799 10794 10791 10787 10784 10782 10781 10779 10779 10778 10779 10779 10779 10780 10780 10781 10782 10782 10781 10781 10778 10776 10774 10773 10771 10769 10768 10767 10767 10766 10766
10845 10843 10839 10836 10832 10828 10823 10817 10813 10808 10802 10797 10792 10788 10784 10781 10777 10775 10774 10772 10771 10772 10773 10773 10773 10773 10774 10775 10776 10776 10776 10776 10774 10772 10770 10769 10766 10765 10764 10762 10761 10761 10761
10838 10834 10831 10828 10824 10820 10815 10810 10805 10801 10796 10791 10786 10783 10778 10774 10771 10769 10767 10767 10766 10767 10767 10767 10767 10767 10768 10769 10769 10769 10770 10769 10768 10767 10765 10764 10762 10761 10760 10758 10758 10757 10756
10828 10826 10823 10819 10816 10812 10807 10802 10797 10793 10789 10783 10779 10776 10772 10767 10765 10762 10762 10761 10761 10761 10762 10762 10762 10761 10762 10762 10763 10763 10763 10762 10761 10761 10761 10758 10757 10756 10756 10754 10754 10754 10752
10819 10816 10814 10810 10807 10804 10799 10793 10789 10785 10781 10776 10772 10769 10766 10762 10759 10756 10756 10755 10755 10756 10756 10756 10756 10756 10756 10756 10756 10756 10755 10756 10757 10755 10754 10752 10750 10751 10750 10751 10749 10748 10748
10809 10806 10803 10802 10798 10795 10791 10786 10780 10778 10773 10767 10764 10761 10758 10756 10753 10751 10749 10749 10749 10750 10750 10751 10751 10751 10751 10750 10749 10748 10748 10749 10750 10748 10746 10744 10743 10743 10742 10740 10741 10741 10741
10798 10796 10792 10790 10789 10786 10782 10778 10772 10770 10765 10759 10756 10755 10750 10747 10746 10745 10743 10743 10742 10744 10743 10744 10745 10745 10744 10742 10742 10741 10741 10741 10742 10740 10737 10735 10734 10735 10733 10731 10731 10732 10731
10786 10782 10782 10781 10778 10778 10773 10770 10764 10762 10758 10752 10747 10746 10744 10742 10739 10737 10737 10737 10736 10737 10737 10737 10737 10738 10737 10736 10735 10734 10733 10732 10731 10730 10729 10725 10724 10726 10723 10721 10722 10721 10721
10774 10768 10771 10767 10767 10766 10763 10760 10756 10753 10750 10745 10741 10737 10735 10734 10732 10730 10729 10728 10728 10728 10729 10729 10728 10728 10728 10728 10727 10726 10725 10723 10721 10720 10719 10718 10715 10713 10712 10710 10710 10711 10710
10760 10756 10755 10754 10755 10755 10752 10749 10745 10742 10740 10737 10733 10730 10726 10724 10724 10723 10721 10720 10719 10719 10719 10718 10718 10718 10718 10717 10716 10715 10714 10712 10710 10707 10706 10703 10705 10702 10698 10697 10697 10698 10698
10747 10745 10742 10743 10742 10742 10740 10737 10734 10731 10729 10727 10722 10722 10719 10715 10714 10713 10712 10711 10710 10709 10708 10708 10707 10707 10707 10706 10705 10704 10702 10701 10699 10698 10694 10690 10692 10690 10686 10683 10684 10683 10683
10734 10733 10729 10729 10729 10728 10727 10725 10723 10720 10718 10715 10713 10711 10709 10708 10706 10704 10703 10703 10701 10700 10699 10698 10697 10696 10695 10695 10694 10691 10690 10688 10686 10685 10680 10680 10674 10676 10676 10670 10671 10669 10668
10720 10720 10716 10716 10714 10714 10713 10712 10710 10708 10706 10703 10702 10699 10697 10697 10696 10695 10694 10693 10692 10691 10690 10688 10686 10685 10683 10683 10681 10678 10676 10672 10671 10670 10665 10665 10660 10656 10654 10658 10658 10655 10651
10705 10704 10702 10702 10699 10699 10699 10699 10698 10696 10694 10692 10689 10688 10686 10684 10684 10683 10682 10682 10681 10679 10677 10676 10674 10672 10669 10668 10665 10663 10662 10658 10655 10656 10650 10650 10644 10638 10635 10634 10639 10641 10629
10690 10691 10688 10687 10685 10686 10686 10686 10684 10681 10681 10679 10676 10674 10673 10672 10671 10669 10668 10667 10666 10665 10663 10661 10660 10657 10654 10653 10650 10647 10646 10643 10634 10639 10638 10630 10625 10621 10622 10618 10614 10611 10612
10675 10677 10673 10674 10671 10669 10671 10671 10670 10668 10667 10666 10665 10660 10659 10659 10658 10656 10655 10653 10652 10650 10648 10646 10645 10643 10639 10636 10633 10629 10627 10628 10622 10616 10617 10614 10606 10599 10600 10600 10595 10590 10585
10654 10660 10655 10656 10656 10650 10653 10655 10652 10652 10653 10653 10651 10649 10647 10645 10644 10642 10641 10640 10638 10636 10633 10631 10628 10627 10623 10619 10616 10612 10607 10603 10601 10601 10600 10596 10584 10585 10581 10570 10568 10566 10563
10642 10635 10636 10636 10639 10635 10636 10638 10636 10635 10638 10636 10635 10634 10633 10631 10628 10626 10625 10623 10621 10619 10616 10614 10611 10609 10606 10602 10598 10594 10590 10584 10577 10575 10573 10574 10567 10564 10562 10550 10546 10539 10535
10636 10616 10618 10614 10617 10619 10617 10617 10616 10615 10622 10619 10618 10618 10618 10616 10613 10610 10608 10606 10604 10602 10599 10597 10594 10591 10587 10584 10580 10576 10571 10567 10556 10552 10547 10541 10535 10534 10534 10524 10515 10508 10503